[[{"header":{"parameterUnit":"m.s-1","parameterCategory":1,"la1":30.2991,"la2":30.254,"lo1":-89.0895,"lo2":-89.0444,"dy":0.0017,"dx":0.0017,"nx":28,"ny":28,"refTime":"2024-08-13T03:00:00:Z","depth":0,"parameterNumber":2,"parameterNumberName":"U-component_of_WINDS"},"data":[0,0,0,0,0,0,0,0,0,0,0,0,0,0,0,0,0,0,0,0,0,0,0,0,0,0,0,0,0,0,0,0,0,0,0,0,0,0,0,0,0,0,0,0,0,0,0,0,0,0,0,0,0,0,0,0,0,0,2.2769,2.277,0,2.2852,2.2853,2.2854,2.283,2.2828,2.2826,2.2825,2.291,2.2914,2.2918,0,0,0,0,0,0,0,0,0,0,0,0,0,2.2589,2.2593,2.2769,2.277,2.2771,2.2852,2.2853,2.2854,2.283,2.2828,2.2826,2.2824,2.2909,2.2914,2.2918,0,0,0,0,0,0,0,0,0,0,0,0,0,2.2669,2.2594,2.2769,2.2769,2.2769,2.2852,2.2853,2.2855,2.283,2.2828,2.2825,2.2823,2.2908,2.2913,2.2919,2.3007,0,0,2.2937,2.2939,0,0,0,0,0,0,0,0,2.2665,2.2676,2.2768,2.2769,2.277,2.2828,2.2821,2.2906,2.2831,2.2807,2.2825,2.2822,2.2885,2.2893,2.2914,2.3011,2.3015,2.2937,2.2941,2.2943,2.2945,0,0,0,0,0,0,0,2.2659,2.2672,2.2802,2.2769,2.277,2.2764,2.2773,2.2837,2.286,2.2809,2.2808,2.2818,2.2885,2.2908,2.2916,2.3016,2.2937,2.2942,2.2946,2.2948,2.3189,2.3192,0,0,0,0,0,0,2.2653,2.2668,2.2799,2.2804,2.271,2.277,2.2779,2.2812,2.2859,2.2864,2.282,2.2816,2.29,2.2909,2.2919,2.3025,2.2943,2.2949,2.2952,2.3187,2.319,2.3193,0,0,0,0,0,0,2.2649,2.2665,2.2796,2.2736,2.2752,2.2776,2.2812,2.2815,2.2838,2.2867,2.2871,2.2839,2.2898,2.291,2.2985,2.3027,2.2952,2.2957,2.3183,2.3188,2.3192,2.3237,0,0,0,0,0,0,2.2644,2.2664,2.2697,2.2737,2.2755,2.2861,2.2815,2.2818,2.2848,2.2844,2.2886,2.2891,2.2897,2.2977,2.2991,2.3034,2.2961,2.3179,2.3185,2.319,2.3232,2.3243,2.3252,0,0,0,0,0,2.2638,2.2707,2.2699,2.2715,2.2798,2.2863,2.2874,2.2879,2.2852,2.2886,2.2904,2.289,2.302,2.2984,2.3,2.3046,2.3177,2.3184,2.319,2.3228,2.3241,2.3251,0,0,0,0,0,0,2.2672,2.2712,2.2704,2.2788,2.2822,2.2859,2.2902,2.2893,2.2936,2.2931,2.2936,2.2946,2.3022,2.3042,2.3001,2.3133,2.3095,2.3105,2.3118,2.313,2.314,2.3134,2.2966,0,0,0,0,0,2.2689,2.2739,2.2771,2.2842,2.286,2.2878,2.2907,2.2908,2.2944,2.2959,2.2983,2.3019,2.3068,2.31,2.3147,2.3235,2.3244,2.3274,2.3284,2.3292,2.33,2.3348,2.3362,2.3215,2.3215,2.3214,0,0,2.2725,2.2753,2.2785,2.285,2.2877,2.2929,2.2891,2.2947,2.2985,2.2968,2.3039,2.3059,2.3099,2.318,2.3218,2.3199,2.3343,2.33,2.3306,2.331,2.3356,2.337,2.3382,2.3219,2.3218,2.3218,0,0,2.2818,2.2844,2.2906,2.2934,2.2975,2.2987,2.3001,2.304,2.3052,2.3124,2.3112,2.3158,2.3242,2.3271,2.3297,2.3401,2.3389,2.3416,2.3467,2.3514,2.3525,2.3536,2.3572,2.3585,2.3425,2.3425,2.3425,0,2.2857,2.2934,2.2939,2.2996,2.3025,2.3012,2.3074,2.3101,2.3156,2.3176,2.3155,2.3261,2.3287,2.3375,2.34,2.3422,2.3439,2.3411,2.3523,2.3534,2.3543,2.3578,2.3592,2.3428,2.3427,2.3427,2.3427,0,2.2981,2.3035,2.308,2.3133,2.3167,2.3227,2.3241,2.3275,2.3273,2.3287,2.3361,2.3392,2.3445,2.3466,2.3465,2.3554,2.3541,2.3522,2.3482,2.356,2.3593,2.3607,2.3432,2.3431,2.343,2.3429,0,0,2.3097,2.3152,2.3168,2.3192,2.3236,2.3278,2.3338,2.3389,2.3418,2.3457,2.3506,2.3578,2.356,2.359,2.3592,2.3633,2.3713,2.3608,2.3609,2.3626,2.3813,2.3827,2.3843,2.3706,2.3708,2.371,2.381,0,2.3193,2.3297,2.3303,2.3397,2.3447,2.3434,2.3486,2.3519,2.3534,2.3578,2.3595,2.3646,2.3618,2.3636,2.3676,2.3695,2.375,2.3688,2.3752,2.3754,2.3742,2.386,2.3876,2.3968,2.3823,2.3825,2.3826,0,2.3318,2.336,2.346,2.3497,2.3518,2.3565,2.3612,2.3655,2.3692,2.37,2.3733,2.373,2.3791,2.375,2.3834,2.3791,2.3818,2.3831,2.3835,2.3841,2.3795,2.3869,2.3997,2.4011,2.3847,2.3845,2.3844,0,2.3393,2.3474,2.3544,2.3565,2.361,2.3643,2.3664,2.3698,2.3729,2.3771,2.3791,2.3839,2.3866,2.3904,2.3913,2.3883,2.3997,2.3957,2.4006,2.4005,2.403,2.4028,2.4164,2.4048,2.4048,2.4047,2.4047,0,2.3499,2.356,2.3578,2.3621,2.3689,2.3695,2.3762,2.3781,2.3812,2.3858,2.3851,2.3895,2.3905,2.3951,2.3959,2.4028,2.404,2.4048,2.4049,2.4049,2.4047,2.4066,2.4059,2.4051,2.405,2.405,2.4049,0,2.3593,2.3607,2.3683,2.372,2.373,2.3779,2.3811,2.3852,2.3866,2.3925,2.3939,2.3961,2.4014,2.4028,2.4092,2.4098,2.4178,2.4174,2.4166,2.4165,2.4213,2.4208,2.4365,2.4386,2.4256,2.4257,2.4258,0,2.366,2.3706,2.3748,2.3779,2.3801,2.385,2.3881,2.3889,2.3922,2.3968,2.4004,2.4057,2.4099,2.4186,2.4207,2.4257,2.4253,2.4305,2.426,2.4258,2.4253,2.425,2.4255,2.4313,2.4314,2.4315,2.4316,0,2.3776,2.3781,2.3826,2.3874,2.3911,2.3949,2.3985,2.4011,2.4024,2.4061,2.4116,2.4149,2.4214,2.4267,2.4316,2.4338,2.433,2.433,2.4344,2.4343,2.4336,2.434,2.4188,2.4326,2.4325,2.4325,2.4324,2.4324,2.3859,2.3899,2.3935,2.3986,2.4014,2.4048,2.4089,2.4107,2.4153,2.4207,2.4209,2.4268,2.4305,2.437,2.4395,2.4441,2.4426,2.4446,2.4451,2.4455,2.4459,2.4329,2.445,2.445,2.445,2.445,2.4449,0,2.3975,2.3997,2.4043,2.4094,2.4134,2.4122,2.4162,2.4196,2.4248,2.4283,2.4325,2.4388,2.4439,2.4465,2.4515,2.4548,2.4545,2.4561,2.4558,2.4563,2.447,2.4453,2.4562,2.4562,2.4562,2.4562,2.4562,2.4562,2.404,2.4108,2.4117,2.42,2.4222,2.4279,2.4303,2.4335,2.4362,2.4432,2.4475,2.4491,2.4522,2.4575,2.4621,2.4628,2.4646,2.4664,2.4668,2.4581,2.457,2.4559,2.4543,2.4668,2.4668,2.4757,2.4758,2.4758]},{"header":{"parameterUnit":"m.s-1","parameterCategory":1,"la1":30.2991,"la2":30.254,"lo1":-89.0895,"lo2":-89.0444,"dy":0.0017,"dx":0.0017,"nx":28,"ny":28,"refTime":"2024-08-13T03:00:00:Z","depth":0,"parameterNumber":3,"parameterNumberName":"V-component_of_WINDS"},"data":[0,0,0,0,0,0,0,0,0,0,0,0,0,0,0,0,0,0,0,0,0,0,0,0,0,0,0,0,0,0,0,0,0,0,0,0,0,0,0,0,0,0,0,0,0,0,0,0,0,0,0,0,0,0,0,0,0,0,-1.2124,-1.2125,0,-1.2188,-1.2189,-1.2189,-1.2185,-1.2184,-1.2183,-1.2182,-1.2249,-1.2251,-1.2254,0,0,0,0,0,0,0,0,0,0,0,0,0,-1.2,-1.2003,-1.2124,-1.2125,-1.2126,-1.2188,-1.2189,-1.2189,-1.2185,-1.2184,-1.2183,-1.2182,-1.2248,-1.2251,-1.2254,0,0,0,0,0,0,0,0,0,0,0,0,0,-1.2058,-1.2003,-1.2124,-1.2131,-1.2132,-1.2188,-1.2189,-1.219,-1.2185,-1.2184,-1.2182,-1.2181,-1.2247,-1.2251,-1.2255,-1.2308,0,0,-1.2267,-1.2268,0,0,0,0,0,0,0,0,-1.2055,-1.2063,-1.2129,-1.2131,-1.2132,-1.2177,-1.2169,-1.2229,-1.2186,-1.2165,-1.2182,-1.218,-1.2226,-1.2232,-1.2247,-1.2311,-1.2314,-1.2267,-1.227,-1.2271,-1.2272,0,0,0,0,0,0,0,-1.2051,-1.206,-1.2149,-1.213,-1.2132,-1.2131,-1.2138,-1.2181,-1.2203,-1.2167,-1.2167,-1.2174,-1.2227,-1.2243,-1.2248,-1.2315,-1.2267,-1.2271,-1.2273,-1.2275,-1.2426,-1.2427,0,0,0,0,0,0,-1.2045,-1.2057,-1.2147,-1.2151,-1.2089,-1.2135,-1.2142,-1.2164,-1.2202,-1.2207,-1.2175,-1.2174,-1.2237,-1.2244,-1.2251,-1.2315,-1.2271,-1.2275,-1.2277,-1.2424,-1.2426,-1.2428,0,0,0,0,0,0,-1.2042,-1.2053,-1.2145,-1.2104,-1.2116,-1.2138,-1.2163,-1.2166,-1.2182,-1.2209,-1.2213,-1.2188,-1.2236,-1.2245,-1.2293,-1.2317,-1.2277,-1.228,-1.2422,-1.2425,-1.2427,-1.2445,0,0,0,0,0,0,-1.2039,-1.2052,-1.2072,-1.2104,-1.2118,-1.2186,-1.2164,-1.2168,-1.2189,-1.2187,-1.2222,-1.2226,-1.2236,-1.2287,-1.2297,-1.2322,-1.2283,-1.242,-1.2423,-1.2426,-1.2442,-1.2448,-1.2452,0,0,0,0,0,-1.2034,-1.2075,-1.2073,-1.2084,-1.2143,-1.2187,-1.2195,-1.2205,-1.2191,-1.2211,-1.2229,-1.2225,-1.2313,-1.2292,-1.2304,-1.233,-1.2419,-1.2422,-1.2426,-1.244,-1.2447,-1.2452,0,0,0,0,0,0,-1.2046,-1.2079,-1.2078,-1.213,-1.2156,-1.2187,-1.2213,-1.2212,-1.2243,-1.224,-1.2251,-1.2259,-1.2308,-1.2324,-1.23,-1.2384,-1.2364,-1.237,-1.2371,-1.2378,-1.2383,-1.2378,-1.2287,0,0,0,0,0,-1.2054,-1.2087,-1.2115,-1.2158,-1.2171,-1.219,-1.221,-1.2215,-1.2242,-1.2253,-1.2274,-1.2301,-1.2335,-1.2357,-1.239,-1.2445,-1.2452,-1.2468,-1.2473,-1.2477,-1.2482,-1.2513,-1.252,-1.244,-1.244,-1.244,0,0,-1.2072,-1.2095,-1.2115,-1.2161,-1.2182,-1.2216,-1.2199,-1.2236,-1.2261,-1.2259,-1.2306,-1.2322,-1.2353,-1.2405,-1.2429,-1.242,-1.2506,-1.2482,-1.2485,-1.2488,-1.2517,-1.2525,-1.2532,-1.2442,-1.2442,-1.2441,0,0,-1.2123,-1.2143,-1.2181,-1.2202,-1.2233,-1.2245,-1.2255,-1.2286,-1.2296,-1.2343,-1.2342,-1.2373,-1.2431,-1.2454,-1.2473,-1.2531,-1.2529,-1.2542,-1.2568,-1.2597,-1.2604,-1.2609,-1.263,-1.2638,-1.2547,-1.2547,-1.2547,0,-1.2141,-1.2192,-1.2201,-1.2238,-1.2259,-1.2258,-1.2297,-1.2317,-1.2358,-1.2372,-1.2361,-1.2434,-1.2455,-1.2512,-1.2527,-1.2542,-1.2553,-1.2538,-1.2602,-1.2608,-1.2613,-1.2633,-1.2641,-1.2548,-1.2548,-1.2548,-1.2548,0,-1.2213,-1.2249,-1.2276,-1.2314,-1.2338,-1.2376,-1.2391,-1.2414,-1.2418,-1.2431,-1.2479,-1.2504,-1.2542,-1.2556,-1.256,-1.2614,-1.2607,-1.2599,-1.258,-1.2622,-1.2641,-1.2649,-1.255,-1.255,-1.2549,-1.2549,0,0,-1.2272,-1.2315,-1.2325,-1.2343,-1.2377,-1.2405,-1.2443,-1.248,-1.2499,-1.2527,-1.256,-1.2609,-1.2602,-1.2623,-1.263,-1.2655,-1.2701,-1.2644,-1.2645,-1.2654,-1.2762,-1.2768,-1.2776,-1.2699,-1.2701,-1.2702,-1.2759,0,-1.2326,-1.2393,-1.2402,-1.2461,-1.2494,-1.2494,-1.2527,-1.2552,-1.2566,-1.2596,-1.2611,-1.2646,-1.2634,-1.2647,-1.2672,-1.269,-1.2722,-1.2686,-1.273,-1.2732,-1.2722,-1.2786,-1.2793,-1.2845,-1.2767,-1.2768,-1.2769,0,-1.2398,-1.2427,-1.2489,-1.2519,-1.2533,-1.2563,-1.2597,-1.2626,-1.2655,-1.2663,-1.2687,-1.269,-1.273,-1.2709,-1.2765,-1.274,-1.2758,-1.277,-1.2772,-1.2777,-1.2753,-1.2793,-1.2862,-1.287,-1.2781,-1.278,-1.2779,0,-1.2434,-1.249,-1.2534,-1.2549,-1.2585,-1.2606,-1.2622,-1.2649,-1.2671,-1.2701,-1.2715,-1.275,-1.2769,-1.2796,-1.2809,-1.2792,-1.2863,-1.2843,-1.2872,-1.2871,-1.2887,-1.2886,-1.296,-1.2899,-1.2899,-1.2898,-1.2898,0,-1.2493,-1.2531,-1.2551,-1.2578,-1.2621,-1.2632,-1.2674,-1.269,-1.2714,-1.2745,-1.2747,-1.2776,-1.2791,-1.2823,-1.2833,-1.2878,-1.2886,-1.2894,-1.2897,-1.2894,-1.2893,-1.2907,-1.2903,-1.2901,-1.29,-1.29,-1.2899,0,-1.2542,-1.2556,-1.2605,-1.2635,-1.2643,-1.2673,-1.27,-1.2726,-1.274,-1.2779,-1.2788,-1.281,-1.2847,-1.2862,-1.2908,-1.2915,-1.2966,-1.2966,-1.2956,-1.2957,-1.2984,-1.2982,-1.3071,-1.3083,-1.3013,-1.3014,-1.3014,0,-1.2578,-1.2608,-1.2641,-1.2661,-1.2678,-1.2711,-1.2732,-1.2744,-1.2767,-1.2801,-1.2824,-1.2861,-1.2891,-1.2951,-1.2971,-1.3006,-1.3006,-1.3035,-1.3012,-1.3008,-1.3007,-1.3005,-1.3008,-1.3039,-1.304,-1.3041,-1.3041,0,-1.2642,-1.2647,-1.2678,-1.2712,-1.2737,-1.2764,-1.2791,-1.2808,-1.2824,-1.2849,-1.2887,-1.291,-1.2956,-1.2993,-1.303,-1.3047,-1.3047,-1.3048,-1.3057,-1.3055,-1.3048,-1.3052,-1.2968,-1.3046,-1.3046,-1.3045,-1.3045,-1.3045,-1.2686,-1.2711,-1.2739,-1.2773,-1.2794,-1.2819,-1.2845,-1.2862,-1.2893,-1.2931,-1.2937,-1.2977,-1.3005,-1.3054,-1.3073,-1.3105,-1.3098,-1.311,-1.3113,-1.3116,-1.3118,-1.3043,-1.3112,-1.3112,-1.3111,-1.3111,-1.3111,0,-1.2749,-1.2767,-1.2798,-1.2835,-1.2862,-1.2859,-1.2888,-1.2911,-1.2946,-1.2972,-1.3002,-1.3045,-1.3081,-1.3104,-1.314,-1.3161,-1.3162,-1.317,-1.3169,-1.3173,-1.3122,-1.3111,-1.3169,-1.3169,-1.3169,-1.3169,-1.3169,-1.3169,-1.2786,-1.2829,-1.2838,-1.2893,-1.291,-1.2949,-1.2966,-1.2989,-1.301,-1.3058,-1.3087,-1.3102,-1.3127,-1.3165,-1.3198,-1.3203,-1.3217,-1.3225,-1.3231,-1.3183,-1.3177,-1.3171,-1.3161,-1.3228,-1.3228,-1.3279,-1.328,-1.328]}]]